This is the latest recevied weather packets stored in our database for station/object KC1DMA. If no packets are shown the sender has not sent any weather packets the latest 10 day(s).
| Time | Temp. | Humidity | Pressure | Rain* | Wind** | Luminosity | Snow |
|---|---|---|---|---|---|---|---|
| 1777564397 | 9.44° C | 98% | 1009 hPa | - | - | 99 W/m² | - |
| 1777564094 | 9.44° C | 98% | 1009.1 hPa | - | - | 100 W/m² | - |
| 1777562882 | 9.44° C | 99% | 1008.9 hPa | - | - | 136 W/m² | - |
| 1777561671 | 8.89° C | 99% | 1009 hPa | - | - | 149 W/m² | - |
| 1777559243 | 8.89° C | 99% | 1009.1 hPa | - | - | 94 W/m² | - |
| 1777558938 | 8.89° C | 99% | 1008.9 hPa | - | - | 62 W/m² | - |
| 1777554684 | 8.89° C | 99% | 1008.9 hPa | - | - | 152 W/m² | - |
| 1777554381 | 8.89° C | 99% | 1009.2 hPa | - | - | 78 W/m² | - |
| 1777553774 | 8.89° C | 99% | 1009.1 hPa | - | - | 99 W/m² | - |
| 1777553471 | 8.33° C | 99% | 1009 hPa | - | - | 55 W/m² | - |
| 1777552557 | 8.89° C | 99% | 1009.2 hPa | - | - | 117 W/m² | - |
| 1777552254 | 8.33° C | 99% | 1009.5 hPa | - | - | 62 W/m² | - |
| 1777551950 | 8.33° C | 99% | 1009.6 hPa | - | - | 66 W/m² | - |
| 1777551648 | 8.33° C | 99% | 1009.4 hPa | - | - | 39 W/m² | - |
| 1777551346 | 8.33° C | 99% | 1009.4 hPa | - | - | 65 W/m² | - |
| 1777550739 | 8.33° C | 99% | 1009.5 hPa | - | - | 76 W/m² | - |
| 1777548614 | 8.33° C | 99% | 1009.7 hPa | - | - | 34 W/m² | - |
| 1777548008 | 8.33° C | 99% | 1009.8 hPa | - | - | 26 W/m² | - |
| 1777547703 | 8.33° C | 99% | 1009.7 hPa | - | - | 30 W/m² | - |
| 1777547400 | 8.33° C | 99% | 1009.7 hPa | - | - | 17 W/m² | - |
| 1777545582 | 8.33° C | 99% | 1009.4 hPa | - | - | 18 W/m² | - |
| 1777545278 | 8.33° C | 99% | 1009.3 hPa | - | - | 16 W/m² | - |
| 1777544976 | 8.33° C | 99% | 1009.2 hPa | - | - | 12 W/m² | - |
| 1777544673 | 7.78° C | 99% | 1009.4 hPa | - | - | 6 W/m² | - |
| 1777544368 | 7.78° C | 99% | 1009.2 hPa | - | - | 4 W/m² | - |
* Rain since midnight (hover to see other rain measurements)
** Current wind speed in m/s (hover to see current wind gust speed)